Flood From: 19-02-2018 10:30 Until: 20-02-2018 06:00 warning for: Flood Level: Yellow info button

Although rather usual in this region, locally or potentially dangerous phenomena are expected. (such as local winds, summer thunderstorms, rising streams or high waves) Be aware and pay attention to the latest weather updates, especially if you carry out activities exposed to weather or close to a stream or shoreline. 


Meteo18 Weather Cam more information Meteo18 Weather Cam


Thunder radar more information blitzortung!


Rain radar more information rain snow radar


Visit our other weather sites:

Template documentation
and downloads

And another site



Weather Underground History page Text

Daily Summary for May 18, 2017 Units:  Both    English   Metric
« Previous Day
Next Day »
Daily Weekly Monthly Yearly Custom
  High: Low: Average:
Temperature: TemperatureC °F /  -17.8 °C 10.4 °F /  -12 °C 15.9 °F /  -8.9 °C
Dew Point: DewpointC °F /  -17.8 °C 9.5 °F /  -12.5 °C 13.9 °F /  -10.1 °C
Humidity: Humidity % 65 % 88 %
Wind Speed: WindSpeedKMH mph /  0 km/h - 5.4 mph /  8.7 km/h
Wind Gust: WindSpeedGustKMH mph /  0 km/h - -
Wind:- - SSW
Pressure: PressurehPa in /  0 hPa 1007.3 in /  34107.2 hPa -
Precipitation: 23.1 in /  586.74 mm    
Historical Graphs
 
 
Tabular Data for May 18, 2017
Time Temperature Dew Point Pressure Wind Wind Speed Wind Gust Humidity Rainfall Rate (Hourly)
TemperatureC °F /  -17.8 °C DewpointC °F /  -17.8 °C PressurehPa in /  0 hPa Calm     Humidity % HourlyPrecipMM in /  0 mm
00:02 18.4 °F /  -7.6 °C 14.9 °F /  -9.5 °C 1015.5 in /  34384.8 hPa SW 8.0 mph /  12.9 km/h 17.7 mph /  28.5 km/h 80 % 0.0 in /  0 mm
00:07 18.3 °F /  -7.6 °C 15.0 °F /  -9.4 °C 1015.5 in /  34384.8 hPa West 3.2 mph /  5.1 km/h 12.9 mph /  20.8 km/h 81 % 0.0 in /  0 mm
00:12 18.2 °F /  -7.7 °C 15.1 °F /  -9.4 °C 1015.5 in /  34384.8 hPa West 1.6 mph /  2.6 km/h 11.3 mph /  18.2 km/h 82 % 0.0 in /  0 mm
00:17 18.1 °F /  -7.7 °C 15.0 °F /  -9.4 °C 1015.5 in /  34384.8 hPa WSW 1.6 mph /  2.6 km/h 11.3 mph /  18.2 km/h 82 % 0.0 in /  0 mm
00:22 18.1 °F /  -7.7 °C 15.2 °F /  -9.3 °C 1015.8 in /  34395 hPa SW 3.2 mph /  5.1 km/h 11.3 mph /  18.2 km/h 83 % 0.0 in /  0 mm
00:32 18.1 °F /  -7.7 °C 15.4 °F /  -9.2 °C 1015.8 in /  34395 hPa SW 8.0 mph /  12.9 km/h 8.0 mph /  12.9 km/h 84 % 0.0 in /  0 mm
00:42 17.6 °F /  -8 °C 15.6 °F /  -9.1 °C 1016.1 in /  34405.1 hPa SSW 11.3 mph /  18.2 km/h 12.9 mph /  20.8 km/h 88 % 0.3 in /  7.62 mm
00:47 17.2 °F /  -8.2 °C 15.5 °F /  -9.2 °C 1016.1 in /  34405.1 hPa WSW 14.5 mph /  23.3 km/h 17.7 mph /  28.5 km/h 90 % 0.5 in /  12.7 mm
00:52 16.9 °F /  -8.4 °C 15.4 °F /  -9.2 °C 1015.8 in /  34395 hPa SSW 8.0 mph /  12.9 km/h 17.7 mph /  28.5 km/h 91 % 1.8 in /  45.72 mm
00:57 16.8 °F /  -8.4 °C 15.5 °F /  -9.2 °C 1015.8 in /  34395 hPa WSW 3.2 mph /  5.1 km/h 17.7 mph /  28.5 km/h 92 % 2.5 in /  63.5 mm
01:02 16.8 °F /  -8.4 °C 15.7 °F /  -9.1 °C 1015.8 in /  34395 hPa SW 8.0 mph /  12.9 km/h 17.7 mph /  28.5 km/h 93 % 3.0 in /  76.2 mm
01:07 16.7 °F /  -8.5 °C 15.6 °F /  -9.1 °C 1015.8 in /  34395 hPa SW 3.2 mph /  5.1 km/h 14.5 mph /  23.3 km/h 93 % 3.3 in /  83.82 mm
01:12 16.7 °F /  -8.5 °C 15.6 °F /  -9.1 °C 1015.5 in /  34384.8 hPa Calm   11.3 mph /  18.2 km/h 93 % 3.3 in /  83.82 mm
01:22 16.7 °F /  -8.5 °C 15.7 °F /  -9.1 °C 1015.1 in /  34371.3 hPa SW 1.6 mph /  2.6 km/h 8.0 mph /  12.9 km/h 94 % 3.6 in /  91.44 mm
01:27 16.7 °F /  -8.5 °C 15.7 °F /  -9.1 °C 1015.5 in /  34384.8 hPa SW 3.2 mph /  5.1 km/h 8.0 mph /  12.9 km/h 94 % 3.6 in /  91.44 mm
01:32 16.7 °F /  -8.5 °C 15.7 °F /  -9.1 °C 1015.5 in /  34384.8 hPa SW 1.6 mph /  2.6 km/h 8.0 mph /  12.9 km/h 94 % 3.6 in /  91.44 mm
01:37 16.7 °F /  -8.5 °C 15.7 °F /  -9.1 °C 1015.5 in /  34384.8 hPa SW 9.7 mph /  15.6 km/h 9.7 mph /  15.6 km/h 94 % 3.6 in /  91.44 mm
01:42 16.7 °F /  -8.5 °C 15.7 °F /  -9.1 °C 1015.5 in /  34384.8 hPa WSW 4.8 mph /  7.7 km/h 12.9 mph /  20.8 km/h 94 % 3.3 in /  83.82 mm
01:47 16.7 °F /  -8.5 °C 15.9 °F /  -8.9 °C 1015.5 in /  34384.8 hPa SW 6.4 mph /  10.3 km/h 12.9 mph /  20.8 km/h 95 % 2.3 in /  58.42 mm
01:52 16.6 °F /  -8.6 °C 15.8 °F /  -9 °C 1015.5 in /  34384.8 hPa SW 4.8 mph /  7.7 km/h 12.9 mph /  20.8 km/h 95 % 1.5 in /  38.1 mm
01:57 16.5 °F /  -8.6 °C 15.7 °F /  -9.1 °C 1015.5 in /  34384.8 hPa SSE 6.4 mph /  10.3 km/h 12.9 mph /  20.8 km/h 95 % 0.8 in /  20.32 mm
02:02 16.5 °F /  -8.6 °C 15.7 °F /  -9.1 °C 1015.5 in /  34384.8 hPa SW 11.3 mph /  18.2 km/h 14.5 mph /  23.3 km/h 95 % 0.5 in /  12.7 mm
02:12 16.5 °F /  -8.6 °C 15.7 °F /  -9.1 °C 1015.5 in /  34384.8 hPa SW 8.0 mph /  12.9 km/h 16.1 mph /  25.9 km/h 95 % 0.3 in /  7.62 mm
02:17 16.5 °F /  -8.6 °C 15.7 °F /  -9.1 °C 1015.5 in /  34384.8 hPa SW 6.4 mph /  10.3 km/h 16.1 mph /  25.9 km/h 95 % 0.0 in /  0 mm
02:22 16.5 °F /  -8.6 °C 15.7 °F /  -9.1 °C 1015.5 in /  34384.8 hPa South 3.2 mph /  5.1 km/h 14.5 mph /  23.3 km/h 95 % 0.0 in /  0 mm
02:27 16.5 °F /  -8.6 °C 15.7 °F /  -9.1 °C 1015.5 in /  34384.8 hPa SSW 8.0 mph /  12.9 km/h 14.5 mph /  23.3 km/h 95 % 0.0 in /  0 mm
02:32 16.4 °F /  -8.7 °C 15.6 °F /  -9.1 °C 1015.5 in /  34384.8 hPa SSW 3.2 mph /  5.1 km/h 11.3 mph /  18.2 km/h 95 % 0.0 in /  0 mm
02:37 16.4 °F /  -8.7 °C 15.6 °F /  -9.1 °C 1015.5 in /  34384.8 hPa SSW 3.2 mph /  5.1 km/h 11.3 mph /  18.2 km/h 95 % 0.0 in /  0 mm
02:42 16.4 °F /  -8.7 °C 15.6 °F /  -9.1 °C 1015.1 in /  34371.3 hPa SW 6.4 mph /  10.3 km/h 12.9 mph /  20.8 km/h 95 % 0.3 in /  7.62 mm
02:47 16.3 °F /  -8.7 °C 15.5 °F /  -9.2 °C 1015.1 in /  34371.3 hPa SSW 9.7 mph /  15.6 km/h 12.9 mph /  20.8 km/h 95 % 0.3 in /  7.62 mm
02:52 16.3 °F /  -8.7 °C 15.5 °F /  -9.2 °C 1015.1 in /  34371.3 hPa SW 4.8 mph /  7.7 km/h 14.5 mph /  23.3 km/h 95 % 0.3 in /  7.62 mm
02:57 16.3 °F /  -8.7 °C 15.5 °F /  -9.2 °C 1015.1 in /  34371.3 hPa SW 11.3 mph /  18.2 km/h 14.5 mph /  23.3 km/h 95 % 0.5 in /  12.7 mm
03:02 16.2 °F /  -8.8 °C 15.4 °F /  -9.2 °C 1015.1 in /  34371.3 hPa SW 4.8 mph /  7.7 km/h 14.5 mph /  23.3 km/h 95 % 0.5 in /  12.7 mm
03:07 16.2 °F /  -8.8 °C 15.4 °F /  -9.2 °C 1015.1 in /  34371.3 hPa SSE 4.8 mph /  7.7 km/h 14.5 mph /  23.3 km/h 95 % 0.5 in /  12.7 mm
03:12 16.2 °F /  -8.8 °C 15.4 °F /  -9.2 °C 1015.1 in /  34371.3 hPa SSW 4.8 mph /  7.7 km/h 14.5 mph /  23.3 km/h 95 % 0.5 in /  12.7 mm
03:17 16.2 °F /  -8.8 °C 15.6 °F /  -9.1 °C 1015.1 in /  34371.3 hPa SW 3.2 mph /  5.1 km/h 12.9 mph /  20.8 km/h 96 % 0.5 in /  12.7 mm
03:22 16.2 °F /  -8.8 °C 15.6 °F /  -9.1 °C 1015.1 in /  34371.3 hPa South 3.2 mph /  5.1 km/h 11.3 mph /  18.2 km/h 96 % 0.5 in /  12.7 mm
03:27 16.2 °F /  -8.8 °C 15.6 °F /  -9.1 °C 1015.1 in /  34371.3 hPa SSW 1.6 mph /  2.6 km/h 11.3 mph /  18.2 km/h 96 % 0.8 in /  20.32 mm
03:32 16.1 °F /  -8.8 °C 15.5 °F /  -9.2 °C 1015.1 in /  34371.3 hPa WSW 4.8 mph /  7.7 km/h 11.3 mph /  18.2 km/h 96 % 0.8 in /  20.32 mm
03:37 16.1 °F /  -8.8 °C 15.5 °F /  -9.2 °C 1015.5 in /  34384.8 hPa West 6.4 mph /  10.3 km/h 11.3 mph /  18.2 km/h 96 % 1.0 in /  25.4 mm
03:42 16.1 °F /  -8.8 °C 15.5 °F /  -9.2 °C 1015.5 in /  34384.8 hPa SW 4.8 mph /  7.7 km/h 11.3 mph /  18.2 km/h 96 % 1.0 in /  25.4 mm
03:47 16.1 °F /  -8.8 °C 15.5 °F /  -9.2 °C 1015.1 in /  34371.3 hPa West 4.8 mph /  7.7 km/h 11.3 mph /  18.2 km/h 96 % 1.0 in /  25.4 mm
03:52 16.1 °F /  -8.8 °C 15.3 °F /  -9.3 °C 1015.1 in /  34371.3 hPa WSW 9.7 mph /  15.6 km/h 11.3 mph /  18.2 km/h 95 % 1.0 in /  25.4 mm
03:57 16.0 °F /  -8.9 °C 15.2 °F /  -9.3 °C 1015.1 in /  34371.3 hPa SW 1.6 mph /  2.6 km/h 11.3 mph /  18.2 km/h 95 % 0.8 in /  20.32 mm
04:02 16.0 °F /  -8.9 °C 15.2 °F /  -9.3 °C 1015.1 in /  34371.3 hPa SW 4.8 mph /  7.7 km/h 11.3 mph /  18.2 km/h 95 % 0.8 in /  20.32 mm
04:07 15.9 °F /  -8.9 °C 15.1 °F /  -9.4 °C 1015.1 in /  34371.3 hPa SW 6.4 mph /  10.3 km/h 12.9 mph /  20.8 km/h 95 % 0.8 in /  20.32 mm
04:12 15.9 °F /  -8.9 °C 15.1 °F /  -9.4 °C 1015.1 in /  34371.3 hPa Calm   12.9 mph /  20.8 km/h 95 % 0.5 in /  12.7 mm
04:17 15.9 °F /  -8.9 °C 15.1 °F /  -9.4 °C 1015.1 in /  34371.3 hPa SSW 3.2 mph /  5.1 km/h 12.9 mph /  20.8 km/h 95 % 0.5 in /  12.7 mm
04:22 15.9 °F /  -8.9 °C 15.1 °F /  -9.4 °C 1015.1 in /  34371.3 hPa SW 6.4 mph /  10.3 km/h 12.9 mph /  20.8 km/h 95 % 0.5 in /  12.7 mm
04:27 15.9 °F /  -8.9 °C 15.1 °F /  -9.4 °C 1015.1 in /  34371.3 hPa WSW 1.6 mph /  2.6 km/h 9.7 mph /  15.6 km/h 95 % 0.5 in /  12.7 mm
04:32 15.9 °F /  -8.9 °C 15.1 °F /  -9.4 °C 1015.1 in /  34371.3 hPa WSW 1.6 mph /  2.6 km/h 9.7 mph /  15.6 km/h 95 % 0.3 in /  7.62 mm
04:37 15.9 °F /  -8.9 °C 15.1 °F /  -9.4 °C 1015.1 in /  34371.3 hPa Calm   9.7 mph /  15.6 km/h 95 % 0.5 in /  12.7 mm
04:42 15.9 °F /  -8.9 °C 15.1 °F /  -9.4 °C 1015.1 in /  34371.3 hPa WNW 3.2 mph /  5.1 km/h 6.4 mph /  10.3 km/h 95 % 0.3 in /  7.62 mm
04:47 15.7 °F /  -9.1 °C 14.7 °F /  -9.6 °C 1015.1 in /  34371.3 hPa West 4.8 mph /  7.7 km/h 6.4 mph /  10.3 km/h 94 % 0.3 in /  7.62 mm
04:52 15.5 °F /  -9.2 °C 14.5 °F /  -9.7 °C 1015.1 in /  34371.3 hPa WNW 6.4 mph /  10.3 km/h 6.4 mph /  10.3 km/h 94 % 0.3 in /  7.62 mm
04:57 15.4 °F /  -9.2 °C 14.4 °F /  -9.8 °C 1015.1 in /  34371.3 hPa West 1.6 mph /  2.6 km/h 9.7 mph /  15.6 km/h 94 % 0.3 in /  7.62 mm
05:02 15.3 °F /  -9.3 °C 14.3 °F /  -9.8 °C 1015.1 in /  34371.3 hPa Calm   9.7 mph /  15.6 km/h 94 % 0.3 in /  7.62 mm
05:12 15.3 °F /  -9.3 °C 14.3 °F /  -9.8 °C 1015.1 in /  34371.3 hPa Calm   9.7 mph /  15.6 km/h 94 % 0.5 in /  12.7 mm
05:17 15.3 °F /  -9.3 °C 14.3 °F /  -9.8 °C 1015.1 in /  34371.3 hPa Calm   4.8 mph /  7.7 km/h 94 % 0.5 in /  12.7 mm
05:22 15.3 °F /  -9.3 °C 14.3 °F /  -9.8 °C 1015.1 in /  34371.3 hPa Calm   4.8 mph /  7.7 km/h 94 % 0.5 in /  12.7 mm
05:32 15.3 °F /  -9.3 °C 14.3 °F /  -9.8 °C 1015.1 in /  34371.3 hPa Calm   1.6 mph /  2.6 km/h 94 % 0.5 in /  12.7 mm
05:37 15.2 °F /  -9.3 °C 14.2 °F /  -9.9 °C 1015.1 in /  34371.3 hPa Calm   1.6 mph /  2.6 km/h 94 % 0.5 in /  12.7 mm
05:42 15.1 °F /  -9.4 °C 14.1 °F /  -9.9 °C 1015.1 in /  34371.3 hPa WNW 1.6 mph /  2.6 km/h 1.6 mph /  2.6 km/h 94 % 0.5 in /  12.7 mm
05:47 15.1 °F /  -9.4 °C 14.0 °F /  -10 °C 1015.1 in /  34371.3 hPa SW 1.6 mph /  2.6 km/h 4.8 mph /  7.7 km/h 93 % 0.8 in /  20.32 mm
05:52 15.0 °F /  -9.4 °C 13.9 °F /  -10.1 °C 1015.1 in /  34371.3 hPa Calm   4.8 mph /  7.7 km/h 93 % 0.8 in /  20.32 mm
06:02 14.8 °F /  -9.6 °C 13.7 °F /  -10.2 °C 1015.1 in /  34371.3 hPa Calm   4.8 mph /  7.7 km/h 93 % 1.0 in /  25.4 mm
06:12 14.8 °F /  -9.6 °C 13.7 °F /  -10.2 °C 1015.1 in /  34371.3 hPa Calm   3.2 mph /  5.1 km/h 93 % 1.0 in /  25.4 mm
06:17 14.8 °F /  -9.6 °C 13.7 °F /  -10.2 °C 1015.1 in /  34371.3 hPa Calm   1.6 mph /  2.6 km/h 93 % 1.0 in /  25.4 mm
06:22 14.9 °F /  -9.5 °C 13.8 °F /  -10.1 °C 1015.1 in /  34371.3 hPa Calm   1.6 mph /  2.6 km/h 93 % 1.0 in /  25.4 mm
06:32 14.9 °F /  -9.5 °C 13.9 °F /  -10.1 °C 1015.1 in /  34371.3 hPa Calm     94 % 0.8 in /  20.32 mm
06:37 15.0 °F /  -9.4 °C 14.0 °F /  -10 °C 1015.1 in /  34371.3 hPa Calm     94 % 0.5 in /  12.7 mm
06:42 15.0 °F /  -9.4 °C 14.0 °F /  -10 °C 1015.1 in /  34371.3 hPa Calm     94 % 0.5 in /  12.7 mm
06:47 14.9 °F /  -9.5 °C 13.9 °F /  -10.1 °C 1015.1 in /  34371.3 hPa SW 1.6 mph /  2.6 km/h 6.4 mph /  10.3 km/h 94 % 0.5 in /  12.7 mm
06:57 14.7 °F /  -9.6 °C 13.7 °F /  -10.2 °C 1015.1 in /  34371.3 hPa SSW 3.2 mph /  5.1 km/h 6.4 mph /  10.3 km/h 94 % 0.5 in /  12.7 mm
07:02 14.6 °F /  -9.7 °C 13.6 °F /  -10.2 °C 1015.1 in /  34371.3 hPa SSW 1.6 mph /  2.6 km/h 6.4 mph /  10.3 km/h 94 % 0.5 in /  12.7 mm
07:12 14.6 °F /  -9.7 °C 13.8 °F /  -10.1 °C 1015.1 in /  34371.3 hPa Calm   6.4 mph /  10.3 km/h 95 % 0.8 in /  20.32 mm
07:17 14.6 °F /  -9.7 °C 13.8 °F /  -10.1 °C 1015.1 in /  34371.3 hPa Calm   4.8 mph /  7.7 km/h 95 % 1.3 in /  33.02 mm
07:22 14.7 °F /  -9.6 °C 13.9 °F /  -10.1 °C 1015.1 in /  34371.3 hPa Calm   4.8 mph /  7.7 km/h 95 % 1.5 in /  38.1 mm
07:32 14.7 °F /  -9.6 °C 13.9 °F /  -10.1 °C 1015.1 in /  34371.3 hPa Calm     95 % 1.5 in /  38.1 mm
07:42 14.6 °F /  -9.7 °C 13.8 °F /  -10.1 °C 1015.1 in /  34371.3 hPa Calm     95 % 1.8 in /  45.72 mm
07:52 14.6 °F /  -9.7 °C 13.8 °F /  -10.1 °C 1015.1 in /  34371.3 hPa Calm     95 % 1.8 in /  45.72 mm
07:57 14.6 °F /  -9.7 °C 13.8 °F /  -10.1 °C 1014.8 in /  34361.1 hPa Calm     95 % 2.0 in /  50.8 mm
08:02 14.6 °F /  -9.7 °C 13.8 °F /  -10.1 °C 1014.8 in /  34361.1 hPa Calm     95 % 2.3 in /  58.42 mm
08:12 14.6 °F /  -9.7 °C 13.8 °F /  -10.1 °C 1015.1 in /  34371.3 hPa Calm     95 % 2.3 in /  58.42 mm
08:17 14.6 °F /  -9.7 °C 13.8 °F /  -10.1 °C 1014.8 in /  34361.1 hPa Calm     95 % 2.3 in /  58.42 mm
08:27 14.6 °F /  -9.7 °C 13.8 °F /  -10.1 °C 1015.1 in /  34371.3 hPa Calm     95 % 2.3 in /  58.42 mm
08:32 14.6 °F /  -9.7 °C 13.8 °F /  -10.1 °C 1015.1 in /  34371.3 hPa Calm     95 % 2.3 in /  58.42 mm
08:37 14.6 °F /  -9.7 °C 13.8 °F /  -10.1 °C 1015.1 in /  34371.3 hPa Calm     95 % 2.3 in /  58.42 mm
08:47 14.7 °F /  -9.6 °C 14.1 °F /  -9.9 °C 1015.1 in /  34371.3 hPa Calm     96 % 2.3 in /  58.42 mm
08:52 14.8 °F /  -9.6 °C 14.2 °F /  -9.9 °C 1015.1 in /  34371.3 hPa Calm     96 % 2.3 in /  58.42 mm
09:02 14.7 °F /  -9.6 °C 13.9 °F /  -10.1 °C 1015.1 in /  34371.3 hPa Calm     95 % 3.0 in /  76.2 mm
09:12 14.6 °F /  -9.7 °C 14.0 °F /  -10 °C 1015.1 in /  34371.3 hPa Calm     96 % 3.0 in /  76.2 mm
09:17 14.7 °F /  -9.6 °C 14.1 °F /  -9.9 °C 1014.8 in /  34361.1 hPa Calm   1.6 mph /  2.6 km/h 96 % 3.0 in /  76.2 mm
09:22 14.8 °F /  -9.6 °C 14.2 °F /  -9.9 °C 1014.8 in /  34361.1 hPa Calm   1.6 mph /  2.6 km/h 96 % 3.0 in /  76.2 mm
09:32 14.9 °F /  -9.5 °C 14.3 °F /  -9.8 °C 1014.8 in /  34361.1 hPa Calm     96 % 2.8 in /  71.12 mm
09:42 15.0 °F /  -9.4 °C 14.4 °F /  -9.8 °C 1014.8 in /  34361.1 hPa Calm     96 % 2.5 in /  63.5 mm
09:47 15.1 °F /  -9.4 °C 14.5 °F /  -9.7 °C 1014.8 in /  34361.1 hPa Calm     96 % 2.3 in /  58.42 mm
09:52 15.1 °F /  -9.4 °C 14.5 °F /  -9.7 °C 1014.8 in /  34361.1 hPa Calm     96 % 2.3 in /  58.42 mm
10:02 15.1 °F /  -9.4 °C 14.5 °F /  -9.7 °C 1014.8 in /  34361.1 hPa Calm     96 % 1.5 in /  38.1 mm
10:12 15.1 °F /  -9.4 °C 14.5 °F /  -9.7 °C 1014.8 in /  34361.1 hPa Calm   3.2 mph /  5.1 km/h 96 % 0.5 in /  12.7 mm
10:17 15.2 °F /  -9.3 °C 14.6 °F /  -9.7 °C 1014.8 in /  34361.1 hPa Calm   3.2 mph /  5.1 km/h 96 % 0.3 in /  7.62 mm
10:22 15.1 °F /  -9.4 °C 14.5 °F /  -9.7 °C 1014.4 in /  34347.6 hPa Calm   1.6 mph /  2.6 km/h 96 % 0.3 in /  7.62 mm
10:32 15.1 °F /  -9.4 °C 14.5 °F /  -9.7 °C 1014.4 in /  34347.6 hPa Calm   3.2 mph /  5.1 km/h 96 % 0.0 in /  0 mm
10:42 15.2 °F /  -9.3 °C 14.6 °F /  -9.7 °C 1014.4 in /  34347.6 hPa Calm   4.8 mph /  7.7 km/h 96 % 0.0 in /  0 mm
10:47 15.4 °F /  -9.2 °C 14.8 °F /  -9.6 °C 1014.4 in /  34347.6 hPa Calm   3.2 mph /  5.1 km/h 96 % 0.0 in /  0 mm
10:52 15.6 °F /  -9.1 °C 14.8 °F /  -9.6 °C 1014.4 in /  34347.6 hPa Calm   3.2 mph /  5.1 km/h 95 % 0.0 in /  0 mm
10:57 15.5 °F /  -9.2 °C 14.7 °F /  -9.6 °C 1014.4 in /  34347.6 hPa Calm   3.2 mph /  5.1 km/h 95 % 0.0 in /  0 mm
11:02 15.7 °F /  -9.1 °C 14.9 °F /  -9.5 °C 1014.4 in /  34347.6 hPa Calm   3.2 mph /  5.1 km/h 95 % 0.0 in /  0 mm
11:12 15.9 °F /  -8.9 °C 14.9 °F /  -9.5 °C 1014.1 in /  34337.4 hPa Calm   3.2 mph /  5.1 km/h 94 % 0.0 in /  0 mm
11:17 15.9 °F /  -8.9 °C 14.9 °F /  -9.5 °C 1014.1 in /  34337.4 hPa ENE 3.2 mph /  5.1 km/h 3.2 mph /  5.1 km/h 94 % 0.0 in /  0 mm
11:22 15.9 °F /  -8.9 °C 14.8 °F /  -9.6 °C 1014.1 in /  34337.4 hPa Calm   4.8 mph /  7.7 km/h 93 % 0.0 in /  0 mm
11:32 16.1 °F /  -8.8 °C 14.8 °F /  -9.6 °C 1013.8 in /  34327.3 hPa Calm   4.8 mph /  7.7 km/h 92 % 0.0 in /  0 mm
11:42 16.2 °F /  -8.8 °C 14.7 °F /  -9.6 °C 1013.8 in /  34327.3 hPa ENE 1.6 mph /  2.6 km/h 4.8 mph /  7.7 km/h 91 % 0.0 in /  0 mm
11:52 16.4 °F /  -8.7 °C 14.9 °F /  -9.5 °C 1013.8 in /  34327.3 hPa ENE 1.6 mph /  2.6 km/h 4.8 mph /  7.7 km/h 91 % 0.0 in /  0 mm
12:02 16.9 °F /  -8.4 °C 15.4 °F /  -9.2 °C 1013.4 in /  34313.7 hPa South 1.6 mph /  2.6 km/h 6.4 mph /  10.3 km/h 91 % 0.0 in /  0 mm
12:07 17.3 °F /  -8.2 °C 15.3 °F /  -9.3 °C 1013.4 in /  34313.7 hPa Calm   4.8 mph /  7.7 km/h 88 % 0.0 in /  0 mm
12:12 17.4 °F /  -8.1 °C 15.4 °F /  -9.2 °C 1013.4 in /  34313.7 hPa ENE 1.6 mph /  2.6 km/h 4.8 mph /  7.7 km/h 88 % 0.0 in /  0 mm
12:17 17.4 °F /  -8.1 °C 15.2 °F /  -9.3 °C 1013.4 in /  34313.7 hPa Calm   4.8 mph /  7.7 km/h 87 % 0.0 in /  0 mm
12:22 17.4 °F /  -8.1 °C 15.4 °F /  -9.2 °C 1013.1 in /  34303.6 hPa ENE 1.6 mph /  2.6 km/h 3.2 mph /  5.1 km/h 88 % 0.0 in /  0 mm
12:32 17.4 °F /  -8.1 °C 15.6 °F /  -9.1 °C 1013.1 in /  34303.6 hPa ENE 6.4 mph /  10.3 km/h 6.4 mph /  10.3 km/h 89 % 0.0 in /  0 mm
12:42 17.4 °F /  -8.1 °C 15.7 °F /  -9.1 °C 1013.1 in /  34303.6 hPa SE 3.2 mph /  5.1 km/h 8.0 mph /  12.9 km/h 90 % 0.0 in /  0 mm
12:47 17.8 °F /  -7.9 °C 16.0 °F /  -8.9 °C 1013.1 in /  34303.6 hPa East 3.2 mph /  5.1 km/h 8.0 mph /  12.9 km/h 89 % 0.0 in /  0 mm
12:52 17.9 °F /  -7.8 °C 15.7 °F /  -9.1 °C 1012.8 in /  34293.4 hPa ENE 6.4 mph /  10.3 km/h 8.0 mph /  12.9 km/h 87 % 0.0 in /  0 mm
12:57 18.2 °F /  -7.7 °C 16.4 °F /  -8.7 °C 1012.8 in /  34293.4 hPa NE 3.2 mph /  5.1 km/h 8.0 mph /  12.9 km/h 89 % 0.0 in /  0 mm
13:02 18.4 °F /  -7.6 °C 16.2 °F /  -8.8 °C 1012.8 in /  34293.4 hPa NNE 9.7 mph /  15.6 km/h 9.7 mph /  15.6 km/h 87 % 0.0 in /  0 mm
13:07 18.6 °F /  -7.4 °C 16.4 °F /  -8.7 °C 1012.8 in /  34293.4 hPa SSW 3.2 mph /  5.1 km/h 12.9 mph /  20.8 km/h 87 % 0.0 in /  0 mm
13:12 18.8 °F /  -7.3 °C 16.2 °F /  -8.8 °C 1012.8 in /  34293.4 hPa SE 4.8 mph /  7.7 km/h 12.9 mph /  20.8 km/h 85 % 0.0 in /  0 mm
13:17 18.9 °F /  -7.3 °C 16.3 °F /  -8.7 °C 1012.4 in /  34279.9 hPa ESE 4.8 mph /  7.7 km/h 12.9 mph /  20.8 km/h 85 % 0.0 in /  0 mm
13:22 19.1 °F /  -7.2 °C 16.3 °F /  -8.7 °C 1012.4 in /  34279.9 hPa ESE 8.0 mph /  12.9 km/h 8.0 mph /  12.9 km/h 84 % 0.0 in /  0 mm
13:27 19.1 °F /  -7.2 °C 16.0 °F /  -8.9 °C 1012.4 in /  34279.9 hPa ENE 3.2 mph /  5.1 km/h 9.7 mph /  15.6 km/h 82 % 0.0 in /  0 mm
13:32 19.2 °F /  -7.1 °C 16.1 °F /  -8.8 °C 1012.4 in /  34279.9 hPa East 3.2 mph /  5.1 km/h 9.7 mph /  15.6 km/h 82 % 0.0 in /  0 mm
13:42 19.3 °F /  -7.1 °C 16.5 °F /  -8.6 °C 1012.1 in /  34269.7 hPa ENE 6.4 mph /  10.3 km/h 11.3 mph /  18.2 km/h 84 % 0.0 in /  0 mm
13:47 19.6 °F /  -6.9 °C 16.8 °F /  -8.4 °C 1011.7 in /  34256.2 hPa East 4.8 mph /  7.7 km/h 12.9 mph /  20.8 km/h 84 % 0.0 in /  0 mm
13:52 20.1 °F /  -6.6 °C 16.9 °F /  -8.4 °C 1011.7 in /  34256.2 hPa ENE 9.7 mph /  15.6 km/h 12.9 mph /  20.8 km/h 82 % 0.0 in /  0 mm
13:57 19.9 °F /  -6.7 °C 16.5 °F /  -8.6 °C 1011.7 in /  34256.2 hPa SSE 3.2 mph /  5.1 km/h 14.5 mph /  23.3 km/h 81 % 0.0 in /  0 mm
14:02 20.2 °F /  -6.6 °C 16.6 °F /  -8.6 °C 1011.4 in /  34246 hPa NE 4.8 mph /  7.7 km/h 14.5 mph /  23.3 km/h 80 % 0.0 in /  0 mm
14:07 20.2 °F /  -6.6 °C 16.6 °F /  -8.6 °C 1011.4 in /  34246 hPa ENE 3.2 mph /  5.1 km/h 16.1 mph /  25.9 km/h 80 % 0.0 in /  0 mm
14:12 20.7 °F /  -6.3 °C 16.7 °F /  -8.5 °C 1011.1 in /  34235.8 hPa ESE 1.6 mph /  2.6 km/h 9.7 mph /  15.6 km/h 78 % 0.0 in /  0 mm
14:17 21.1 °F /  -6.1 °C 16.7 °F /  -8.5 °C 1011.1 in /  34235.8 hPa ENE 4.8 mph /  7.7 km/h 12.9 mph /  20.8 km/h 76 % 0.0 in /  0 mm
14:22 21.2 °F /  -6 °C 16.2 °F /  -8.8 °C 1011.1 in /  34235.8 hPa East 1.6 mph /  2.6 km/h 12.9 mph /  20.8 km/h 73 % 0.0 in /  0 mm
14:27 21.4 °F /  -5.9 °C 16.4 °F /  -8.7 °C 1011.1 in /  34235.8 hPa SW 6.4 mph /  10.3 km/h 12.9 mph /  20.8 km/h 73 % 0.0 in /  0 mm
14:32 21.7 °F /  -5.7 °C 16.4 °F /  -8.7 °C 1011.1 in /  34235.8 hPa ENE 6.4 mph /  10.3 km/h 12.9 mph /  20.8 km/h 72 % 0.0 in /  0 mm
14:37 21.6 °F /  -5.8 °C 16.1 °F /  -8.8 °C 1010.7 in /  34222.3 hPa SE 4.8 mph /  7.7 km/h 12.9 mph /  20.8 km/h 71 % 0.0 in /  0 mm
14:42 21.7 °F /  -5.7 °C 16.9 °F /  -8.4 °C 1010.7 in /  34222.3 hPa ESE 4.8 mph /  7.7 km/h 16.1 mph /  25.9 km/h 74 % 0.0 in /  0 mm
14:47 21.6 °F /  -5.8 °C 15.9 °F /  -8.9 °C 1010.7 in /  34222.3 hPa ESE 3.2 mph /  5.1 km/h 16.1 mph /  25.9 km/h 70 % 0.0 in /  0 mm
14:52 21.7 °F /  -5.7 °C 17.3 °F /  -8.2 °C 1010.4 in /  34212.1 hPa ESE 6.4 mph /  10.3 km/h 16.1 mph /  25.9 km/h 76 % 0.0 in /  0 mm
15:02 21.9 °F /  -5.6 °C 16.4 °F /  -8.7 °C 1010.4 in /  34212.1 hPa NE 3.2 mph /  5.1 km/h 14.5 mph /  23.3 km/h 71 % 0.0 in /  0 mm
15:07 22.2 °F /  -5.4 °C 16.9 °F /  -8.4 °C 1010.4 in /  34212.1 hPa NE 6.4 mph /  10.3 km/h 14.5 mph /  23.3 km/h 72 % 0.0 in /  0 mm
15:12 22.2 °F /  -5.4 °C 16.9 °F /  -8.4 °C 1010.4 in /  34212.1 hPa ESE 4.8 mph /  7.7 km/h 14.5 mph /  23.3 km/h 72 % 0.0 in /  0 mm
15:17 22.1 °F /  -5.5 °C 15.9 °F /  -8.9 °C 1010.0 in /  34198.6 hPa SSW 6.4 mph /  10.3 km/h 14.5 mph /  23.3 km/h 68 % 0.0 in /  0 mm
15:22 22.2 °F /  -5.4 °C 15.5 °F /  -9.2 °C 1010.0 in /  34198.6 hPa SE 6.4 mph /  10.3 km/h 16.1 mph /  25.9 km/h 66 % 0.0 in /  0 mm
15:27 21.9 °F /  -5.6 °C 16.0 °F /  -8.9 °C 1010.0 in /  34198.6 hPa ENE 3.2 mph /  5.1 km/h 16.1 mph /  25.9 km/h 69 % 0.0 in /  0 mm
15:32 21.9 °F /  -5.6 °C 16.0 °F /  -8.9 °C 1010.0 in /  34198.6 hPa SSW 11.3 mph /  18.2 km/h 16.1 mph /  25.9 km/h 69 % 0.0 in /  0 mm
15:37 22.1 °F /  -5.5 °C 16.4 °F /  -8.7 °C 1010.0 in /  34198.6 hPa SE 4.8 mph /  7.7 km/h 16.1 mph /  25.9 km/h 70 % 0.0 in /  0 mm
15:42 22.2 °F /  -5.4 °C 16.2 °F /  -8.8 °C 1009.7 in /  34188.4 hPa SSE 3.2 mph /  5.1 km/h 14.5 mph /  23.3 km/h 69 % 0.0 in /  0 mm
15:47 22.3 °F /  -5.4 °C 16.3 °F /  -8.7 °C 1009.7 in /  34188.4 hPa ESE 8.0 mph /  12.9 km/h 16.1 mph /  25.9 km/h 69 % 0.0 in /  0 mm
15:57 22.2 °F /  -5.4 °C 16.5 °F /  -8.6 °C 1009.4 in /  34178.3 hPa SE 1.6 mph /  2.6 km/h 16.1 mph /  25.9 km/h 70 % 0.0 in /  0 mm
16:02 22.2 °F /  -5.4 °C 15.3 °F /  -9.3 °C 1009.4 in /  34178.3 hPa South 4.8 mph /  7.7 km/h 16.1 mph /  25.9 km/h 65 % 0.0 in /  0 mm
16:12 21.7 °F /  -5.7 °C 14.8 °F /  -9.6 °C 1009.4 in /  34178.3 hPa ESE 4.8 mph /  7.7 km/h 20.9 mph /  33.6 km/h 65 % 0.0 in /  0 mm
16:17 21.6 °F /  -5.8 °C 15.7 °F /  -9.1 °C 1009.0 in /  34164.7 hPa SE 9.7 mph /  15.6 km/h 17.7 mph /  28.5 km/h 69 % 0.0 in /  0 mm
16:22 21.8 °F /  -5.7 °C 15.9 °F /  -8.9 °C 1009.0 in /  34164.7 hPa WSW 8.0 mph /  12.9 km/h 17.7 mph /  28.5 km/h 69 % 0.0 in /  0 mm
16:27 21.7 °F /  -5.7 °C 15.3 °F /  -9.3 °C 1009.0 in /  34164.7 hPa SE 11.3 mph /  18.2 km/h 17.7 mph /  28.5 km/h 67 % 0.0 in /  0 mm
16:32 21.8 °F /  -5.7 °C 16.1 °F /  -8.8 °C 1008.7 in /  34154.6 hPa SSE 1.6 mph /  2.6 km/h 17.7 mph /  28.5 km/h 70 % 0.0 in /  0 mm
16:37 21.7 °F /  -5.7 °C 15.1 °F /  -9.4 °C 1008.4 in /  34144.4 hPa ESE 11.3 mph /  18.2 km/h 19.3 mph /  31.1 km/h 66 % 0.0 in /  0 mm
16:42 21.8 °F /  -5.7 °C 15.6 °F /  -9.1 °C 1008.4 in /  34144.4 hPa SE 4.8 mph /  7.7 km/h 22.5 mph /  36.2 km/h 68 % 0.0 in /  0 mm
16:47 21.8 °F /  -5.7 °C 16.1 °F /  -8.8 °C 1008.4 in /  34144.4 hPa SSE 4.8 mph /  7.7 km/h 22.5 mph /  36.2 km/h 70 % 0.0 in /  0 mm
16:52 21.9 °F /  -5.6 °C 16.0 °F /  -8.9 °C 1008.4 in /  34144.4 hPa ESE 8.0 mph /  12.9 km/h 22.5 mph /  36.2 km/h 69 % 0.0 in /  0 mm
16:57 21.8 °F /  -5.7 °C 15.6 °F /  -9.1 °C 1008.0 in /  34130.9 hPa SSE 3.2 mph /  5.1 km/h 16.1 mph /  25.9 km/h 68 % 0.0 in /  0 mm
17:02 21.7 °F /  -5.7 °C 15.5 °F /  -9.2 °C 1008.0 in /  34130.9 hPa SE 3.2 mph /  5.1 km/h 16.1 mph /  25.9 km/h 68 % 0.0 in /  0 mm
17:07 21.5 °F /  -5.8 °C 15.1 °F /  -9.4 °C 1007.7 in /  34120.7 hPa SE 9.7 mph /  15.6 km/h 16.1 mph /  25.9 km/h 67 % 0.0 in /  0 mm
17:12 21.3 °F /  -5.9 °C 14.9 °F /  -9.5 °C 1007.7 in /  34120.7 hPa ESE 4.8 mph /  7.7 km/h 20.9 mph /  33.6 km/h 67 % 0.0 in /  0 mm
17:17 21.2 °F /  -6 °C 14.4 °F /  -9.8 °C 1007.3 in /  34107.2 hPa ESE 8.0 mph /  12.9 km/h 22.5 mph /  36.2 km/h 65 % 0.0 in /  0 mm
17:22 21.0 °F /  -6.1 °C 14.4 °F /  -9.8 °C 1007.7 in /  34120.7 hPa SSE 3.2 mph /  5.1 km/h 22.5 mph /  36.2 km/h 66 % 0.0 in /  0 mm
17:32 19.5 °F /  -6.9 °C 15.4 °F /  -9.2 °C 1009.0 in /  34164.7 hPa West 32.2 mph /  51.8 km/h 32.2 mph /  51.8 km/h 77 % 0.0 in /  0 mm
17:37 17.7 °F /  -7.9 °C 14.8 °F /  -9.6 °C 1009.4 in /  34178.3 hPa West 19.3 mph /  31.1 km/h 38.6 mph /  62.1 km/h 83 % 0.0 in /  0 mm
17:42 16.0 °F /  -8.9 °C 13.8 °F /  -10.1 °C 1009.4 in /  34178.3 hPa West 14.5 mph /  23.3 km/h 53.1 mph /  85.5 km/h 87 % 3.0 in /  76.2 mm
17:47 15.3 °F /  -9.3 °C 13.7 °F /  -10.2 °C 1009.7 in /  34188.4 hPa West 14.5 mph /  23.3 km/h 53.1 mph /  85.5 km/h 90 % 3.8 in /  96.52 mm
17:57 14.5 °F /  -9.7 °C 13.0 °F /  -10.6 °C 1010.0 in /  34198.6 hPa West 14.5 mph /  23.3 km/h 27.4 mph /  44.1 km/h 91 % 5.1 in /  129.54 mm
18:02 14.3 °F /  -9.8 °C 12.9 °F /  -10.6 °C 1010.0 in /  34198.6 hPa WNW 19.3 mph /  31.1 km/h 27.4 mph /  44.1 km/h 91 % 5.3 in /  134.62 mm
18:07 14.1 °F /  -9.9 °C 12.7 °F /  -10.7 °C 1010.0 in /  34198.6 hPa West 17.7 mph /  28.5 km/h 27.4 mph /  44.1 km/h 91 % 5.3 in /  134.62 mm
18:22 13.7 °F /  -10.2 °C 12.3 °F /  -10.9 °C 1010.7 in /  34222.3 hPa WNW 11.3 mph /  18.2 km/h 32.2 mph /  51.8 km/h 91 % 5.6 in /  142.24 mm
18:32 13.6 °F /  -10.2 °C 12.2 °F /  -11 °C 1010.7 in /  34222.3 hPa West 17.7 mph /  28.5 km/h 30.6 mph /  49.2 km/h 91 % 5.6 in /  142.24 mm
18:42 13.6 °F /  -10.2 °C 12.0 °F /  -11.1 °C 1010.4 in /  34212.1 hPa West 12.9 mph /  20.8 km/h 27.4 mph /  44.1 km/h 90 % 5.6 in /  142.24 mm
18:47 13.6 °F /  -10.2 °C 12.0 °F /  -11.1 °C 1010.4 in /  34212.1 hPa WNW 8.0 mph /  12.9 km/h 29.0 mph /  46.7 km/h 90 % 1.8 in /  45.72 mm
18:52 13.6 °F /  -10.2 °C 11.8 °F /  -11.2 °C 1010.7 in /  34222.3 hPa NW 8.0 mph /  12.9 km/h 29.0 mph /  46.7 km/h 89 % 1.3 in /  33.02 mm
18:57 13.5 °F /  -10.3 °C 11.9 °F /  -11.2 °C 1011.1 in /  34235.8 hPa WNW 4.8 mph /  7.7 km/h 29.0 mph /  46.7 km/h 90 % 0.5 in /  12.7 mm
19:02 13.5 °F /  -10.3 °C 11.9 °F /  -11.2 °C 1011.1 in /  34235.8 hPa WNW 8.0 mph /  12.9 km/h 29.0 mph /  46.7 km/h 90 % 0.3 in /  7.62 mm
19:07 13.4 °F /  -10.3 °C 11.8 °F /  -11.2 °C 1011.1 in /  34235.8 hPa West 11.3 mph /  18.2 km/h 30.6 mph /  49.2 km/h 90 % 0.3 in /  7.62 mm
19:12 13.4 °F /  -10.3 °C 11.8 °F /  -11.2 °C 1011.4 in /  34246 hPa SW 6.4 mph /  10.3 km/h 24.1 mph /  38.8 km/h 90 % 0.0 in /  0 mm
19:17 13.4 °F /  -10.3 °C 11.8 °F /  -11.2 °C 1011.4 in /  34246 hPa West 9.7 mph /  15.6 km/h 24.1 mph /  38.8 km/h 90 % 0.0 in /  0 mm
19:22 13.4 °F /  -10.3 °C 11.8 °F /  -11.2 °C 1011.4 in /  34246 hPa WNW 1.6 mph /  2.6 km/h 24.1 mph /  38.8 km/h 90 % 0.0 in /  0 mm
19:27 13.3 °F /  -10.4 °C 11.7 °F /  -11.3 °C 1011.7 in /  34256.2 hPa NW 9.7 mph /  15.6 km/h 17.7 mph /  28.5 km/h 90 % 0.0 in /  0 mm
19:37 13.2 °F /  -10.4 °C 11.4 °F /  -11.4 °C 1012.1 in /  34269.7 hPa WSW 17.7 mph /  28.5 km/h 20.9 mph /  33.6 km/h 89 % 0.0 in /  0 mm
19:42 13.0 °F /  -10.6 °C 11.2 °F /  -11.6 °C 1012.1 in /  34269.7 hPa West 9.7 mph /  15.6 km/h 27.4 mph /  44.1 km/h 89 % 0.0 in /  0 mm
19:47 12.9 °F /  -10.6 °C 11.0 °F /  -11.7 °C 1012.4 in /  34279.9 hPa WNW 12.9 mph /  20.8 km/h 27.4 mph /  44.1 km/h 88 % 0.0 in /  0 mm
19:57 12.6 °F /  -10.8 °C 10.7 °F /  -11.8 °C 1012.4 in /  34279.9 hPa WSW 6.4 mph /  10.3 km/h 24.1 mph /  38.8 km/h 88 % 0.0 in /  0 mm
20:02 12.6 °F /  -10.8 °C 10.7 °F /  -11.8 °C 1012.8 in /  34293.4 hPa WNW 11.3 mph /  18.2 km/h 24.1 mph /  38.8 km/h 88 % 0.0 in /  0 mm
20:12 12.4 °F /  -10.9 °C 10.6 °F /  -11.9 °C 1012.8 in /  34293.4 hPa West 4.8 mph /  7.7 km/h 16.1 mph /  25.9 km/h 89 % 0.3 in /  7.62 mm
20:22 12.3 °F /  -10.9 °C 10.7 °F /  -11.8 °C 1012.8 in /  34293.4 hPa WNW 9.7 mph /  15.6 km/h 14.5 mph /  23.3 km/h 90 % 0.5 in /  12.7 mm
20:27 12.1 °F /  -11.1 °C 10.5 °F /  -11.9 °C 1012.8 in /  34293.4 hPa WNW 9.7 mph /  15.6 km/h 22.5 mph /  36.2 km/h 90 % 0.5 in /  12.7 mm
20:32 12.0 °F /  -11.1 °C 10.2 °F /  -12.1 °C 1013.1 in /  34303.6 hPa WSW 9.7 mph /  15.6 km/h 22.5 mph /  36.2 km/h 89 % 0.5 in /  12.7 mm
20:37 11.9 °F /  -11.2 °C 10.1 °F /  -12.2 °C 1013.4 in /  34313.7 hPa WSW 12.9 mph /  20.8 km/h 22.5 mph /  36.2 km/h 89 % 0.5 in /  12.7 mm
20:47 11.8 °F /  -11.2 °C 10.0 °F /  -12.2 °C 1013.4 in /  34313.7 hPa West 16.1 mph /  25.9 km/h 20.9 mph /  33.6 km/h 89 % 0.8 in /  20.32 mm
20:52 11.6 °F /  -11.3 °C 10.0 °F /  -12.2 °C 1013.4 in /  34313.7 hPa WNW 16.1 mph /  25.9 km/h 20.9 mph /  33.6 km/h 90 % 0.8 in /  20.32 mm
20:57 11.4 °F /  -11.4 °C 10.0 °F /  -12.2 °C 1013.4 in /  34313.7 hPa WNW 6.4 mph /  10.3 km/h 20.9 mph /  33.6 km/h 91 % 1.0 in /  25.4 mm
21:02 11.3 °F /  -11.5 °C 10.0 °F /  -12.2 °C 1013.4 in /  34313.7 hPa West 3.2 mph /  5.1 km/h 20.9 mph /  33.6 km/h 92 % 1.0 in /  25.4 mm
21:07 11.3 °F /  -11.5 °C 10.2 °F /  -12.1 °C 1013.4 in /  34313.7 hPa SW 8.0 mph /  12.9 km/h 17.7 mph /  28.5 km/h 93 % 1.0 in /  25.4 mm
21:12 11.2 °F /  -11.6 °C 10.1 °F /  -12.2 °C 1013.4 in /  34313.7 hPa West 12.9 mph /  20.8 km/h 16.1 mph /  25.9 km/h 93 % 0.8 in /  20.32 mm
21:17 11.3 °F /  -11.5 °C 10.0 °F /  -12.2 °C 1013.4 in /  34313.7 hPa West 4.8 mph /  7.7 km/h 25.7 mph /  41.4 km/h 92 % 0.8 in /  20.32 mm
21:22 11.3 °F /  -11.5 °C 10.0 °F /  -12.2 °C 1013.8 in /  34327.3 hPa West 8.0 mph /  12.9 km/h 25.7 mph /  41.4 km/h 92 % 0.5 in /  12.7 mm
21:27 11.3 °F /  -11.5 °C 10.0 °F /  -12.2 °C 1013.8 in /  34327.3 hPa SW 3.2 mph /  5.1 km/h 25.7 mph /  41.4 km/h 92 % 0.5 in /  12.7 mm
21:32 11.4 °F /  -11.4 °C 10.3 °F /  -12.1 °C 1013.8 in /  34327.3 hPa WSW 6.4 mph /  10.3 km/h 25.7 mph /  41.4 km/h 93 % 0.5 in /  12.7 mm
21:37 11.4 °F /  -11.4 °C 10.3 °F /  -12.1 °C 1014.1 in /  34337.4 hPa SW 8.0 mph /  12.9 km/h 14.5 mph /  23.3 km/h 93 % 0.5 in /  12.7 mm
21:42 11.4 °F /  -11.4 °C 10.3 °F /  -12.1 °C 1014.1 in /  34337.4 hPa WSW 8.0 mph /  12.9 km/h 16.1 mph /  25.9 km/h 93 % 0.5 in /  12.7 mm
21:47 11.4 °F /  -11.4 °C 10.3 °F /  -12.1 °C 1014.1 in /  34337.4 hPa WSW 9.7 mph /  15.6 km/h 17.7 mph /  28.5 km/h 93 % 0.5 in /  12.7 mm
21:52 11.4 °F /  -11.4 °C 10.3 °F /  -12.1 °C 1014.4 in /  34347.6 hPa WSW 11.3 mph /  18.2 km/h 19.3 mph /  31.1 km/h 93 % 0.5 in /  12.7 mm
21:57 11.3 °F /  -11.5 °C 10.2 °F /  -12.1 °C 1014.4 in /  34347.6 hPa WNW 9.7 mph /  15.6 km/h 19.3 mph /  31.1 km/h 93 % 0.5 in /  12.7 mm
22:02 11.2 °F /  -11.6 °C 10.1 °F /  -12.2 °C 1014.4 in /  34347.6 hPa WSW 14.5 mph /  23.3 km/h 19.3 mph /  31.1 km/h 93 % 0.8 in /  20.32 mm
22:12 11.0 °F /  -11.7 °C 9.9 °F /  -12.3 °C 1014.8 in /  34361.1 hPa West 8.0 mph /  12.9 km/h 20.9 mph /  33.6 km/h 93 % 0.8 in /  20.32 mm
22:17 10.9 °F /  -11.7 °C 9.8 °F /  -12.3 °C 1014.8 in /  34361.1 hPa SW 3.2 mph /  5.1 km/h 20.9 mph /  33.6 km/h 93 % 1.0 in /  25.4 mm
22:22 10.9 °F /  -11.7 °C 9.8 °F /  -12.3 °C 1014.8 in /  34361.1 hPa WSW 6.4 mph /  10.3 km/h 24.1 mph /  38.8 km/h 93 % 1.0 in /  25.4 mm
22:27 10.9 °F /  -11.7 °C 9.8 °F /  -12.3 °C 1015.1 in /  34371.3 hPa WSW 9.7 mph /  15.6 km/h 24.1 mph /  38.8 km/h 93 % 1.3 in /  33.02 mm
22:32 10.9 °F /  -11.7 °C 9.8 °F /  -12.3 °C 1014.8 in /  34361.1 hPa SW 9.7 mph /  15.6 km/h 24.1 mph /  38.8 km/h 93 % 1.5 in /  38.1 mm
22:37 10.9 °F /  -11.7 °C 9.8 °F /  -12.3 °C 1014.8 in /  34361.1 hPa WSW 14.5 mph /  23.3 km/h 20.9 mph /  33.6 km/h 93 % 1.5 in /  38.1 mm
22:42 10.9 °F /  -11.7 °C 9.8 °F /  -12.3 °C 1014.8 in /  34361.1 hPa West 11.3 mph /  18.2 km/h 25.7 mph /  41.4 km/h 93 % 1.8 in /  45.72 mm
22:52 10.9 °F /  -11.7 °C 10.0 °F /  -12.2 °C 1015.1 in /  34371.3 hPa WSW 9.7 mph /  15.6 km/h 25.7 mph /  41.4 km/h 94 % 1.8 in /  45.72 mm
23:02 10.7 °F /  -11.8 °C 9.6 °F /  -12.4 °C 1015.5 in /  34384.8 hPa South 6.4 mph /  10.3 km/h 19.3 mph /  31.1 km/h 93 % 1.5 in /  38.1 mm
23:07 10.7 °F /  -11.8 °C 9.6 °F /  -12.4 °C 1015.5 in /  34384.8 hPa SW 16.1 mph /  25.9 km/h 20.9 mph /  33.6 km/h 93 % 1.5 in /  38.1 mm
23:12 10.6 °F /  -11.9 °C 9.7 °F /  -12.4 °C 1015.5 in /  34384.8 hPa SSW 6.4 mph /  10.3 km/h 22.5 mph /  36.2 km/h 94 % 1.3 in /  33.02 mm
23:17 10.6 °F /  -11.9 °C 9.7 °F /  -12.4 °C 1015.1 in /  34371.3 hPa West 9.7 mph /  15.6 km/h 22.5 mph /  36.2 km/h 94 % 1.5 in /  38.1 mm
23:22 10.6 °F /  -11.9 °C 9.7 °F /  -12.4 °C 1015.5 in /  34384.8 hPa SW 11.3 mph /  18.2 km/h 22.5 mph /  36.2 km/h 94 % 1.3 in /  33.02 mm
23:27 10.6 °F /  -11.9 °C 9.7 °F /  -12.4 °C 1015.5 in /  34384.8 hPa SW 6.4 mph /  10.3 km/h 17.7 mph /  28.5 km/h 94 % 1.0 in /  25.4 mm
23:32 10.5 °F /  -11.9 °C 9.6 °F /  -12.4 °C 1015.5 in /  34384.8 hPa SSW 9.7 mph /  15.6 km/h 17.7 mph /  28.5 km/h 94 % 1.3 in /  33.02 mm
23:37 10.5 °F /  -11.9 °C 9.6 °F /  -12.4 °C 1015.5 in /  34384.8 hPa SW 24.1 mph /  38.8 km/h 24.1 mph /  38.8 km/h 94 % 1.0 in /  25.4 mm
23:42 10.4 °F /  -12 °C 9.5 °F /  -12.5 °C 1015.5 in /  34384.8 hPa SW 8.0 mph /  12.9 km/h 24.1 mph /  38.8 km/h 94 % 0.8 in /  20.32 mm
23:47 10.4 °F /  -12 °C 9.5 °F /  -12.5 °C 1015.5 in /  34384.8 hPa WSW 4.8 mph /  7.7 km/h 24.1 mph /  38.8 km/h 94 % 1.0 in /  25.4 mm
23:52 10.4 °F /  -12 °C 9.5 °F /  -12.5 °C 1015.5 in /  34384.8 hPa West 16.1 mph /  25.9 km/h 24.1 mph /  38.8 km/h 94 % 0.8 in /  20.32 mm
23:57 10.4 °F /  -12 °C 9.5 °F /  -12.5 °C 1015.1 in /  34371.3 hPa WSW 12.9 mph /  20.8 km/h 24.1 mph /  38.8 km/h 94 % 1.0 in /  25.4 mm
Meteo18
Compliments of Weather Underground - 4 mb

Script developed by  Jim McMurry - jmcmurry@mwt.net Adapted for the template by  Wim van der Kuil - Leuven-Template.eu

You find our weather info also at:

European Weather Network

Weather Underground

Equipment we use:

Weather-station
Davis Vue

Weather-program
Meteobridge

Weather-server
Raspberry PI 2 B+

Provider
1 and 1

Davis Vue

Meteobridge

Raspberry PI 2 B+

1 and 1